Time,TemperatureF,DewpointF,PressureIn,WindDirection,WindDirectionDegrees,WindSpeedMPH,WindSpeedGustMPH,Humidity,HourlyPrecipIn,Conditions,Clouds,dailyrainin,SoftwareType,DateUTC
2013-10-15 00:12:00,60.6,32.8,29.99,North,-999,-999.0,-999.0,35,-99.99,,,-99.99,Acu-Link.com,2013-10-15 07:12:00,
2013-10-15 00:27:00,60.1,32.3,30.00,North,-999,-999.0,-999.0,35,-99.99,,,-99.99,Acu-Link.com,2013-10-15 07:27:00,
2013-10-15 00:42:00,59.7,32.0,29.99,North,-999,-999.0,-999.0,35,-99.99,,,-99.99,Acu-Link.com,2013-10-15 07:42:00,
2013-10-15 01:01:00,59.7,32.0,29.99,North,-999,-999.0,-999.0,35,-99.99,,,-99.99,Acu-Link.com,2013-10-15 08:01:00,
2013-10-15 01:17:00,59.2,31.5,29.99,North,-999,-999.0,-999.0,35,-99.99,,,-99.99,Acu-Link.com,2013-10-15 08:17:00,
2013-10-15 01:32:00,58.8,31.2,29.99,North,-999,-999.0,-999.0,35,-99.99,,,-99.99,Acu-Link.com,2013-10-15 08:32:00,
2013-10-15 01:47:00,58.5,31.6,29.99,North,-999,-999.0,-999.0,36,-99.99,,,-99.99,Acu-Link.com,2013-10-15 08:47:00,
2013-10-15 02:02:00,56.1,29.5,29.98,North,-999,-999.0,-999.0,36,-99.99,,,-99.99,Acu-Link.com,2013-10-15 09:02:00,
2013-10-15 02:17:00,55.8,28.5,29.97,North,-999,-999.0,-999.0,35,-99.99,,,-99.99,Acu-Link.com,2013-10-15 09:17:00,
2013-10-15 02:32:00,55.4,28.2,29.97,North,-999,-999.0,-999.0,35,-99.99,,,-99.99,Acu-Link.com,2013-10-15 09:32:00,
2013-10-15 02:48:00,55.2,28.1,29.97,North,-999,-999.0,-999.0,35,-99.99,,,-99.99,Acu-Link.com,2013-10-15 09:48:00,
2013-10-15 03:03:00,54.9,27.7,29.96,North,-999,-999.0,-999.0,35,-99.99,,,-99.99,Acu-Link.com,2013-10-15 10:03:00,
2013-10-15 03:18:00,54.5,27.4,29.96,North,-999,-999.0,-999.0,35,-99.99,,,-99.99,Acu-Link.com,2013-10-15 10:18:00,
2013-10-15 03:33:00,54.1,27.1,29.96,North,-999,-999.0,-999.0,35,-99.99,,,-99.99,Acu-Link.com,2013-10-15 10:33:00,
2013-10-15 03:48:00,53.8,26.8,29.94,North,-999,-999.0,-999.0,35,-99.99,,,-99.99,Acu-Link.com,2013-10-15 10:48:00,
2013-10-15 04:03:00,53.6,26.6,29.94,North,-999,-999.0,-999.0,35,-99.99,,,-99.99,Acu-Link.com,2013-10-15 11:03:00,
2013-10-15 04:19:00,53.2,26.3,29.94,North,-999,-999.0,-999.0,35,-99.99,,,-99.99,Acu-Link.com,2013-10-15 11:19:00,
2013-10-15 04:34:00,52.9,26.0,29.94,North,-999,-999.0,-999.0,35,-99.99,,,-99.99,Acu-Link.com,2013-10-15 11:34:00,
2013-10-15 04:49:00,52.7,25.8,29.95,North,-999,-999.0,-999.0,35,-99.99,,,-99.99,Acu-Link.com,2013-10-15 11:49:00,
2013-10-15 05:04:00,52.3,25.5,29.95,North,-999,-999.0,-999.0,35,-99.99,,,-99.99,Acu-Link.com,2013-10-15 12:04:00,
2013-10-15 05:19:00,52.0,25.2,29.94,North,-999,-999.0,-999.0,35,-99.99,,,-99.99,Acu-Link.com,2013-10-15 12:19:00,
2013-10-15 05:34:00,51.8,25.0,29.94,North,-999,-999.0,-999.0,35,-99.99,,,-99.99,Acu-Link.com,2013-10-15 12:34:00,
2013-10-15 05:50:00,51.6,24.9,29.95,North,-999,-999.0,-999.0,35,-99.99,,,-99.99,Acu-Link.com,2013-10-15 12:50:00,
2013-10-15 06:05:00,51.4,24.7,29.96,North,-999,-999.0,-999.0,35,-99.99,,,-99.99,Acu-Link.com,2013-10-15 13:05:00,
2013-10-15 06:20:00,51.1,24.4,29.96,North,-999,-999.0,-999.0,35,-99.99,,,-99.99,Acu-Link.com,2013-10-15 13:20:00,
2013-10-15 06:35:00,50.7,24.1,29.96,North,-999,-999.0,-999.0,35,-99.99,,,-99.99,Acu-Link.com,2013-10-15 13:35:00,
2013-10-15 06:51:00,50.7,24.1,29.97,North,-999,-999.0,-999.0,35,-99.99,,,-99.99,Acu-Link.com,2013-10-15 13:51:00,
2013-10-15 07:06:00,50.4,23.8,29.97,North,-999,-999.0,-999.0,35,-99.99,,,-99.99,Acu-Link.com,2013-10-15 14:06:00,
2013-10-15 07:21:00,50.4,23.8,29.98,North,-999,-999.0,-999.0,35,-99.99,,,-99.99,Acu-Link.com,2013-10-15 14:21:00,
2013-10-15 07:36:00,50.0,23.4,29.98,North,-999,-999.0,-999.0,35,-99.99,,,-99.99,Acu-Link.com,2013-10-15 14:36:00,
2013-10-15 07:51:00,49.8,23.3,29.98,North,-999,-999.0,-999.0,35,-99.99,,,-99.99,Acu-Link.com,2013-10-15 14:51:00,
2013-10-15 08:06:00,49.6,23.1,30.00,North,-999,-999.0,-999.0,35,-99.99,,,-99.99,Acu-Link.com,2013-10-15 15:06:00,
2013-10-15 08:22:00,49.5,23.0,30.00,North,-999,-999.0,-999.0,35,-99.99,,,-99.99,Acu-Link.com,2013-10-15 15:22:00,
2013-10-15 08:37:00,49.5,23.0,29.99,North,-999,-999.0,-999.0,35,-99.99,,,-99.99,Acu-Link.com,2013-10-15 15:37:00,
2013-10-15 08:52:00,49.3,22.8,29.99,North,-999,-999.0,-999.0,35,-99.99,,,-99.99,Acu-Link.com,2013-10-15 15:52:00,
2013-10-15 09:07:00,49.3,22.8,29.99,North,-999,-999.0,-999.0,35,-99.99,,,-99.99,Acu-Link.com,2013-10-15 16:07:00,
2013-10-15 09:22:00,49.6,23.1,29.99,North,-999,-999.0,-999.0,35,-99.99,,,-99.99,Acu-Link.com,2013-10-15 16:22:00,
2013-10-15 09:38:00,50.0,23.4,29.99,North,-999,-999.0,-999.0,35,-99.99,,,-99.99,Acu-Link.com,2013-10-15 16:38:00,
2013-10-15 09:53:00,50.5,23.9,29.99,North,-999,-999.0,-999.0,35,-99.99,,,-99.99,Acu-Link.com,2013-10-15 16:53:00,
2013-10-15 10:08:00,51.4,24.7,29.98,North,-999,-999.0,-999.0,35,-99.99,,,-99.99,Acu-Link.com,2013-10-15 17:08:00,
2013-10-15 10:23:00,52.2,25.4,29.99,North,-999,-999.0,-999.0,35,-99.99,,,-99.99,Acu-Link.com,2013-10-15 17:23:00,
2013-10-15 10:39:00,52.9,26.0,29.99,North,-999,-999.0,-999.0,35,-99.99,,,-99.99,Acu-Link.com,2013-10-15 17:39:00,
2013-10-15 10:54:00,53.8,26.8,30.00,North,-999,-999.0,-999.0,35,-99.99,,,-99.99,Acu-Link.com,2013-10-15 17:54:00,
2013-10-15 11:09:00,54.5,27.4,29.98,North,-999,-999.0,-999.0,35,-99.99,,,-99.99,Acu-Link.com,2013-10-15 18:09:00,
2013-10-15 11:24:00,55.2,28.1,29.99,North,-999,-999.0,-999.0,35,-99.99,,,-99.99,Acu-Link.com,2013-10-15 18:24:00,
2013-10-15 11:40:00,55.9,28.7,29.98,North,-999,-999.0,-999.0,35,-99.99,,,-99.99,Acu-Link.com,2013-10-15 18:40:00,
2013-10-15 11:55:00,56.7,30.0,29.97,North,-999,-999.0,-999.0,36,-99.99,,,-99.99,Acu-Link.com,2013-10-15 18:55:00,
2013-10-15 12:10:00,57.6,30.8,29.98,North,-999,-999.0,-999.0,36,-99.99,,,-99.99,Acu-Link.com,2013-10-15 19:10:00,
2013-10-15 12:25:00,58.5,31.6,29.96,North,-999,-999.0,-999.0,36,-99.99,,,-99.99,Acu-Link.com,2013-10-15 19:25:00,
2013-10-15 12:40:00,59.2,32.2,29.96,North,-999,-999.0,-999.0,36,-99.99,,,-99.99,Acu-Link.com,2013-10-15 19:40:00,
2013-10-15 12:56:00,60.1,33.0,29.96,North,-999,-999.0,-999.0,36,-99.99,,,-99.99,Acu-Link.com,2013-10-15 19:56:00,
2013-10-15 13:11:00,60.8,33.7,29.95,North,-999,-999.0,-999.0,36,-99.99,,,-99.99,Acu-Link.com,2013-10-15 20:11:00,
2013-10-15 13:26:00,61.5,34.3,29.95,North,-999,-999.0,-999.0,36,-99.99,,,-99.99,Acu-Link.com,2013-10-15 20:26:00,
2013-10-15 13:41:00,62.1,34.8,29.94,North,-999,-999.0,-999.0,36,-99.99,,,-99.99,Acu-Link.com,2013-10-15 20:41:00,
2013-10-15 13:56:00,62.8,35.4,29.95,North,-999,-999.0,-999.0,36,-99.99,,,-99.99,Acu-Link.com,2013-10-15 20:56:00,
2013-10-15 14:11:00,63.3,35.9,29.94,North,-999,-999.0,-999.0,36,-99.99,,,-99.99,Acu-Link.com,2013-10-15 21:11:00,
2013-10-15 14:27:00,63.9,36.4,29.93,North,-999,-999.0,-999.0,36,-99.99,,,-99.99,Acu-Link.com,2013-10-15 21:27:00,
2013-10-15 14:42:00,64.6,37.0,29.93,North,-999,-999.0,-999.0,36,-99.99,,,-99.99,Acu-Link.com,2013-10-15 21:42:00,
2013-10-15 14:57:00,65.3,37.7,29.92,North,-999,-999.0,-999.0,36,-99.99,,,-99.99,Acu-Link.com,2013-10-15 21:57:00,
2013-10-15 15:13:00,66.2,38.5,29.93,North,-999,-999.0,-999.0,36,-99.99,,,-99.99,Acu-Link.com,2013-10-15 22:13:00,
2013-10-15 15:28:00,66.7,38.9,29.92,North,-999,-999.0,-999.0,36,-99.99,,,-99.99,Acu-Link.com,2013-10-15 22:28:00,
2013-10-15 15:43:00,67.1,39.2,29.92,North,-999,-999.0,-999.0,36,-99.99,,,-99.99,Acu-Link.com,2013-10-15 22:43:00,
2013-10-15 16:38:00,69.1,40.3,29.94,North,-999,-999.0,-999.0,35,-99.99,,,-99.99,Acu-Link.com,2013-10-15 23:38:00,
2013-10-15 16:53:00,69.4,40.6,29.93,North,-999,-999.0,-999.0,35,-99.99,,,-99.99,Acu-Link.com,2013-10-15 23:53:00,
2013-10-15 17:09:00,69.6,40.7,29.93,North,-999,-999.0,-999.0,35,-99.99,,,-99.99,Acu-Link.com,2013-10-16 00:09:00,
2013-10-15 17:25:00,70.0,41.1,29.94,North,-999,-999.0,-999.0,35,-99.99,,,-99.99,Acu-Link.com,2013-10-16 00:25:00,
2013-10-15 17:40:00,70.3,41.4,29.95,North,-999,-999.0,-999.0,35,-99.99,,,-99.99,Acu-Link.com,2013-10-16 00:40:00,
2013-10-15 17:55:00,70.3,41.4,29.95,North,-999,-999.0,-999.0,35,-99.99,,,-99.99,Acu-Link.com,2013-10-16 00:55:00,
2013-10-15 18:10:00,70.3,41.4,29.95,North,-999,-999.0,-999.0,35,-99.99,,,-99.99,Acu-Link.com,2013-10-16 01:10:00,
2013-10-15 18:25:00,70.0,41.1,29.96,North,-999,-999.0,-999.0,35,-99.99,,,-99.99,Acu-Link.com,2013-10-16 01:25:00,
2013-10-15 18:41:00,70.0,41.1,29.98,North,-999,-999.0,-999.0,35,-99.99,,,-99.99,Acu-Link.com,2013-10-16 01:41:00,
2013-10-15 18:56:00,69.4,39.8,29.97,North,-999,-999.0,-999.0,34,-99.99,,,-99.99,Acu-Link.com,2013-10-16 01:56:00,
2013-10-15 19:11:00,69.1,39.5,29.97,North,-999,-999.0,-999.0,34,-99.99,,,-99.99,Acu-Link.com,2013-10-16 02:11:00,
2013-10-15 19:26:00,68.7,39.2,29.98,North,-999,-999.0,-999.0,34,-99.99,,,-99.99,Acu-Link.com,2013-10-16 02:26:00,
2013-10-15 19:41:00,68.2,38.7,29.98,North,-999,-999.0,-999.0,34,-99.99,,,-99.99,Acu-Link.com,2013-10-16 02:41:00,
2013-10-15 19:56:00,67.6,38.3,29.97,North,-999,-999.0,-999.0,34,-99.99,,,-99.99,Acu-Link.com,2013-10-16 02:56:00,
2013-10-15 20:12:00,67.1,37.8,29.97,North,-999,-999.0,-999.0,34,-99.99,,,-99.99,Acu-Link.com,2013-10-16 03:12:00,
2013-10-15 20:27:00,66.6,37.3,29.98,North,-999,-999.0,-999.0,34,-99.99,,,-99.99,Acu-Link.com,2013-10-16 03:27:00,
2013-10-15 20:42:00,66.0,36.8,29.99,North,-999,-999.0,-999.0,34,-99.99,,,-99.99,Acu-Link.com,2013-10-16 03:42:00,
2013-10-15 20:57:00,65.5,36.4,29.99,North,-999,-999.0,-999.0,34,-99.99,,,-99.99,Acu-Link.com,2013-10-16 03:57:00,
2013-10-15 21:12:00,65.1,36.1,29.99,North,-999,-999.0,-999.0,34,-99.99,,,-99.99,Acu-Link.com,2013-10-16 04:12:00,
2013-10-15 21:27:00,64.4,35.4,30.00,North,-999,-999.0,-999.0,34,-99.99,,,-99.99,Acu-Link.com,2013-10-16 04:27:00,
2013-10-15 21:43:00,64.0,35.1,30.00,North,-999,-999.0,-999.0,34,-99.99,,,-99.99,Acu-Link.com,2013-10-16 04:43:00,
2013-10-15 21:58:00,63.3,34.5,30.00,North,-999,-999.0,-999.0,34,-99.99,,,-99.99,Acu-Link.com,2013-10-16 04:58:00,
2013-10-15 22:13:00,63.1,34.3,30.00,North,-999,-999.0,-999.0,34,-99.99,,,-99.99,Acu-Link.com,2013-10-16 05:13:00,
2013-10-15 22:28:00,62.8,34.0,30.00,North,-999,-999.0,-999.0,34,-99.99,,,-99.99,Acu-Link.com,2013-10-16 05:28:00,
2013-10-15 22:44:00,62.2,33.5,30.01,North,-999,-999.0,-999.0,34,-99.99,,,-99.99,Acu-Link.com,2013-10-16 05:44:00,
2013-10-15 22:59:00,62.1,33.4,30.01,North,-999,-999.0,-999.0,34,-99.99,,,-99.99,Acu-Link.com,2013-10-16 05:59:00,
2013-10-15 23:14:00,61.3,32.7,30.01,North,-999,-999.0,-999.0,34,-99.99,,,-99.99,Acu-Link.com,2013-10-16 06:14:00,
2013-10-15 23:29:00,61.2,32.6,30.01,North,-999,-999.0,-999.0,34,-99.99,,,-99.99,Acu-Link.com,2013-10-16 06:29:00,
2013-10-15 23:44:00,60.6,32.1,30.02,North,-999,-999.0,-999.0,34,-99.99,,,-99.99,Acu-Link.com,2013-10-16 06:44:00,
2013-10-15 23:59:00,60.3,31.8,30.01,North,-999,-999.0,-999.0,34,-99.99,,,-99.99,Acu-Link.com,2013-10-16 06:59:00,